When you browse on this site, cookies collect data to enhance your experience and personalize the content and advertising you see.
Visit our Privacy Policy to learn more. By continuing to use the site, you agree to this use of cookies and data.

Hourly Weather Verhnetavrichanskiy

Today, 6 August, Thursday

Time Temperature Precipitation Wind Pressure Humidity
00:00 +25°C° 0 mm 2 mps 753 mmHg 58%
01:00 +24°C° 0 mm 2 mps 753 mmHg 60%
02:00 +24°C° 0 mm 2 mps 753 mmHg 63%
03:00 +23°C° 0 mm 1 mps 754 mmHg 66%
04:00 +23°C° 0 mm 2 mps 754 mmHg 66%
05:00 +24°C° 0 mm 2 mps 754 mmHg 67%
06:00 +24°C° 0 mm 3 mps 754 mmHg 67%
07:00 +26°C° 0 mm 4 mps 754 mmHg 60%
08:00 +28°C° 0 mm 5 mps 754 mmHg 54%
09:00 +32°C° 0 mm 6 mps 755 mmHg 47%
10:00 +33°C° 0 mm 6 mps 754 mmHg 43%
11:00 +35°C° 0 mm 6 mps 754 mmHg 39%
12:00 +36°C° 0 mm 5 mps 754 mmHg 36%
13:00 +36°C° 0 mm 6 mps 754 mmHg 34%
14:00 +36°C° 0 mm 6 mps 754 mmHg 32%
15:00 +38°C° 0 mm 6 mps 754 mmHg 30%
16:00 +36°C° 0 mm 6 mps 754 mmHg 31%
17:00 +36°C° 0 mm 5 mps 754 mmHg 32%
18:00 +35°C° 0 mm 5 mps 754 mmHg 33%
19:00 +34°C° 0 mm 5 mps 754 mmHg 37%
20:00 +32°C° 0 mm 4 mps 754 mmHg 40%
21:00 +30°C° 0 mm 3 mps 754 mmHg 44%
22:00 +29°C° 0 mm 3 mps 754 mmHg 46%
23:00 +28°C° 0 mm 3 mps 754 mmHg 48%

Tomorrow, 7 August, Friday

Time Temperature Precipitation Wind Pressure Humidity
00:00 +28°C° 0 mm 3 mps 754 mmHg 50%
01:00 +27°C° 0 mm 3 mps 754 mmHg 52%
02:00 +27°C° 0 mm 3 mps 754 mmHg 55%
03:00 +26°C° 0 mm 3 mps 755 mmHg 58%
04:00 +26°C° 0 mm 3 mps 755 mmHg 60%
05:00 +26°C° 0 mm 3 mps 755 mmHg 62%
06:00 +26°C° 0 mm 3 mps 755 mmHg 64%
07:00 +28°C° 0 mm 3 mps 755 mmHg 56%
08:00 +30°C° 0 mm 4 mps 755 mmHg 49%
09:00 +34°C° 0 mm 4 mps 755 mmHg 42%
10:00 +35°C° 0 mm 5 mps 755 mmHg 38%
11:00 +36°C° 0 mm 5 mps 755 mmHg 35%
12:00 +37°C° 0 mm 5 mps 755 mmHg 32%
13:00 +37°C° 0 mm 5 mps 755 mmHg 31%
14:00 +37°C° 0 mm 5 mps 754 mmHg 30%
15:00 +37°C° 0 mm 5 mps 754 mmHg 29%
16:00 +37°C° 0 mm 5 mps 754 mmHg 30%
17:00 +36°C° 0 mm 5 mps 754 mmHg 31%
18:00 +35°C° 0 mm 5 mps 754 mmHg 33%
19:00 +33°C° 0 mm 4 mps 754 mmHg 37%
20:00 +32°C° 0 mm 4 mps 754 mmHg 42%
21:00 +29°C° 0 mm 3 mps 754 mmHg 46%
22:00 +29°C° 0 mm 4 mps 754 mmHg 49%
23:00 +28°C° 0 mm 4 mps 754 mmHg 52%

Day after tomorrow, 8 August, Saturday

Time Temperature Precipitation Wind Pressure Humidity
00:00 +27°C° 0 mm 4 mps 753 mmHg 54%
01:00 +27°C° 0 mm 4 mps 753 mmHg 56%
02:00 +26°C° 0 mm 4 mps 753 mmHg 57%
03:00 +25°C° 0 mm 4 mps 753 mmHg 58%
04:00 +25°C° 0 mm 4 mps 753 mmHg 61%
05:00 +25°C° 0 mm 4 mps 753 mmHg 63%
06:00 +25°C° 0 mm 4 mps 753 mmHg 66%
07:00 +27°C° 0 mm 4 mps 753 mmHg 61%
08:00 +28°C° 0 mm 4 mps 753 mmHg 56%
09:00 +30°C° 0 mm 4 mps 753 mmHg 51%
10:00 +32°C° 0 mm 4 mps 753 mmHg 45%
11:00 +33°C° 0 mm 5 mps 753 mmHg 40%
12:00 +34°C° 0 mm 5 mps 753 mmHg 35%
13:00 +35°C° 0 mm 5 mps 752 mmHg 35%
14:00 +35°C° 0 mm 5 mps 752 mmHg 35%
15:00 +35°C° 0 mm 6 mps 752 mmHg 36%
16:00 +34°C° 0 mm 6 mps 752 mmHg 37%
17:00 +33°C° 0 mm 6 mps 751 mmHg 39%
18:00 +32°C° 0 mm 6 mps 751 mmHg 41%
19:00 +30°C° 0 mm 6 mps 752 mmHg 43%
20:00 +28°C° 0 mm 6 mps 752 mmHg 44%
21:00 +27°C° 0 mm 5 mps 752 mmHg 46%
22:00 +26°C° 0 mm 5 mps 752 mmHg 45%
23:00 +25°C° 0 mm 5 mps 752 mmHg 44%

9 August, Sunday

Time Temperature Precipitation Wind Pressure Humidity
00:00 +25°C° 0 mm 5 mps 752 mmHg 42%
01:00 +23°C° 0 mm 5 mps 752 mmHg 44%
02:00 +22°C° 0 mm 5 mps 752 mmHg 45%
03:00 +21°C° 0 mm 4 mps 752 mmHg 46%
04:00 +21°C° 0 mm 4 mps 752 mmHg 49%
05:00 +20°C° 0 mm 5 mps 753 mmHg 52%
06:00 +20°C° 0 mm 5 mps 753 mmHg 55%
07:00 +22°C° 0 mm 5 mps 753 mmHg 51%
08:00 +23°C° 0 mm 5 mps 753 mmHg 46%
09:00 +26°C° 0 mm 5 mps 753 mmHg 42%
10:00 +27°C° 0 mm 5 mps 753 mmHg 37%
11:00 +29°C° 0 mm 5 mps 753 mmHg 31%
12:00 +30°C° 0 mm 5 mps 753 mmHg 26%
13:00 +32°C° 0 mm 5 mps 752 mmHg 24%
14:00 +32°C° 0 mm 5 mps 752 mmHg 22%
15:00 +33°C° 0 mm 5 mps 752 mmHg 20%
16:00 +32°C° 0 mm 5 mps 752 mmHg 21%
17:00 +30°C° 0 mm 5 mps 752 mmHg 22%
18:00 +30°C° 0 mm 5 mps 752 mmHg 24%
19:00 +28°C° 0 mm 5 mps 752 mmHg 28%
20:00 +26°C° 0 mm 4 mps 752 mmHg 32%
21:00 +23°C° 0 mm 4 mps 752 mmHg 36%
22:00 +22°C° 0 mm 4 mps 752 mmHg 37%
23:00 +22°C° 0 mm 3 mps 752 mmHg 38%

10 August, Monday

Time Temperature Precipitation Wind Pressure Humidity
00:00 +21°C° 0 mm 3 mps 752 mmHg 38%
01:00 +21°C° 0 mm 3 mps 752 mmHg 40%
02:00 +20°C° 0 mm 3 mps 752 mmHg 42%
03:00 +20°C° 0 mm 3 mps 752 mmHg 44%
04:00 +20°C° 0 mm 3 mps 752 mmHg 47%
05:00 +20°C° 0 mm 3 mps 752 mmHg 50%
06:00 +20°C° 0 mm 3 mps 752 mmHg 54%
07:00 +22°C° 0 mm 3 mps 752 mmHg 47%
08:00 +26°C° 0 mm 4 mps 753 mmHg 41%
09:00 +28°C° 0 mm 4 mps 753 mmHg 35%
10:00 +29°C° 0 mm 4 mps 752 mmHg 32%
11:00 +30°C° 0 mm 3 mps 752 mmHg 30%
12:00 +31°C° 0 mm 3 mps 752 mmHg 27%
13:00 +33°C° 0 mm 3 mps 752 mmHg 26%
14:00 +33°C° 0 mm 4 mps 752 mmHg 25%
15:00 +34°C° 0 mm 4 mps 751 mmHg 24%
16:00 +33°C° 0 mm 4 mps 751 mmHg 25%
17:00 +33°C° 0 mm 4 mps 751 mmHg 27%
18:00 +32°C° 0 mm 5 mps 751 mmHg 28%
19:00 +29°C° 0 mm 4 mps 751 mmHg 33%
20:00 +27°C° 0 mm 4 mps 751 mmHg 38%
21:00 +25°C° 0 mm 4 mps 752 mmHg 43%
22:00 +25°C° 0 mm 3 mps 752 mmHg 46%
23:00 +24°C° 0 mm 3 mps 752 mmHg 49%

11 August, Tuesday

Time Temperature Precipitation Wind Pressure Humidity
00:00 +24°C° 0 mm 3 mps 752 mmHg 51%
01:00 +22°C° 0 mm 3 mps 752 mmHg 53%
02:00 +23°C° 0 mm 2 mps 752 mmHg 55%
03:00 +21°C° 0 mm 2 mps 752 mmHg 57%
04:00 +21°C° 0 mm 2 mps 752 mmHg 59%
05:00 +21°C° 0 mm 2 mps 752 mmHg 60%
06:00 +21°C° 0 mm 2 mps 752 mmHg 61%
07:00 +24°C° 0 mm 2 mps 752 mmHg 55%
08:00 +26°C° 0 mm 2 mps 752 mmHg 48%
09:00 +28°C° 0 mm 2 mps 752 mmHg 42%
10:00 +29°C° 0 mm 3 mps 752 mmHg 38%
11:00 +30°C° 0 mm 3 mps 752 mmHg 34%
12:00 +31°C° 0 mm 3 mps 752 mmHg 30%
13:00 +33°C° 0 mm 4 mps 752 mmHg 28%
14:00 +33°C° 0 mm 4 mps 751 mmHg 26%
15:00 +34°C° 0 mm 4 mps 751 mmHg 24%
16:00 +33°C° 0 mm 4 mps 751 mmHg 24%
17:00 +32°C° 0 mm 5 mps 751 mmHg 25%
18:00 +30°C° 0 mm 5 mps 751 mmHg 26%
19:00 +28°C° 0 mm 4 mps 751 mmHg 29%
20:00 +26°C° 0 mm 3 mps 751 mmHg 31%
21:00 +24°C° 0 mm 3 mps 751 mmHg 34%
22:00 +24°C° 0 mm 2 mps 751 mmHg 35%
23:00 +23°C° 0 mm 2 mps 751 mmHg 36%
Show more